Location: Unspecified
(43.3830°N, 0.0000°E)
Time: 03:28:59
(UTC+00:00)

ISS - Visible Passes

Search period start: 23 May 2019 00:00
Search period end: 02 June 2019 00:00
Orbit: 407 x 410 km, 51.6° (Epoch: 23 May)

Date Brightness Start Highest point End Pass type
(mag) Time Alt. Az. Time Alt. Az. Time Alt. Az.
23 May -1.1 21:27:16 10° WNW 21:29:48 20° N 21:32:21 10° NE visible
23 May -1.6 23:04:24 10° NW 23:07:10 24° NNE 23:07:50 22° NNE visible
24 May -1.3 20:35:57 10° WNW 20:38:39 23° NNW 20:41:22 10° NE visible
24 May -1.2 22:13:26 10° NW 22:16:01 20° N 22:18:24 11° ENE visible
24 May -1.4 23:49:52 10° NW 23:51:06 20° NW 23:51:06 20° NW visible
25 May -1.1 21:22:22 10° NW 21:24:50 19° N 21:27:19 10° NE visible
25 May -2.1 22:59:00 10° NW 23:01:43 33° N 23:01:43 33° N visible
26 May -1.1 20:31:09 10° NW 20:33:38 19° N 20:36:07 10° NE visible
26 May -1.8 22:08:06 10° NW 22:10:58 26° NNE 22:12:21 20° NE visible
26 May -1.0 23:44:30 10° WNW 23:45:03 14° WNW 23:45:03 14° WNW visible
27 May -1.5 21:17:09 10° NW 21:19:48 22° N 21:22:27 10° ENE visible
27 May -2.4 22:53:31 10° NW 22:55:42 37° NW 22:55:42 37° NW visible
28 May -1.3 20:26:05 10° NW 20:28:36 20° N 20:31:06 10° NE visible
28 May -2.8 22:02:36 10° NW 22:05:47 42° NNE 22:06:23 37° NE visible
29 May -2.1 21:11:41 10° NW 21:14:39 30° NNE 21:17:04 13° ENE visible
29 May -2.0 22:48:08 10° WNW 22:49:47 26° WNW 22:49:47 26° WNW visible
30 May -1.7 20:20:43 10° NW 20:23:28 24° NNE 20:26:13 10° ENE visible
30 May -4.0 21:57:05 10° WNW 22:00:24 86° NNE 22:00:30 83° E visible
31 May -3.2 21:06:05 10° NW 21:09:21 52° NNE 21:11:14 22° E visible
31 May -1.3 22:43:04 10° W 22:43:57 15° W 22:43:57 15° W visible
01 Jun -2.5 20:15:08 10° NW 20:18:13 35° NNE 20:21:17 10° E visible
01 Jun -3.1 21:51:42 10° WNW 21:54:43 39° SW 21:54:43 39° SW visible
